TimeCDT,TemperatureF,Dew PointF,Humidity,Sea Level PressureIn,VisibilityMPH,Wind Direction,Wind SpeedMPH,Gust SpeedMPH,PrecipitationIn,Events,Conditions,WindDirDegrees,DateUTC
12:52 AM,61.0,52.0,72,29.80,10.0,SE,10.4,-,N/A,,Clear,140,2013-09-23 05:52:00
1:52 AM,59.0,51.1,75,29.80,10.0,SE,9.2,-,N/A,,Clear,140,2013-09-23 06:52:00
2:52 AM,57.9,51.1,78,29.78,10.0,SSE,11.5,-,N/A,,Clear,150,2013-09-23 07:52:00
3:52 AM,55.9,50.0,80,29.78,10.0,SE,8.1,-,N/A,,Clear,140,2013-09-23 08:52:00
4:52 AM,55.9,50.0,80,29.77,10.0,SSE,8.1,-,N/A,,Clear,150,2013-09-23 09:52:00
5:52 AM,55.0,50.0,83,29.77,10.0,SE,10.4,-,N/A,,Clear,140,2013-09-23 10:52:00
6:52 AM,54.0,50.0,86,29.80,10.0,SE,9.2,-,N/A,,Clear,130,2013-09-23 11:52:00
7:52 AM,52.0,50.0,93,29.82,10.0,ESE,6.9,-,N/A,,Clear,120,2013-09-23 12:52:00
8:52 AM,57.9,51.1,78,29.80,10.0,SSE,10.4,-,N/A,,Clear,150,2013-09-23 13:52:00
9:52 AM,64.0,52.0,65,29.80,10.0,SSE,16.1,24.2,N/A,,Clear,160,2013-09-23 14:52:00
10:52 AM,68.0,51.1,55,29.80,10.0,SSE,18.4,29.9,N/A,,Clear,160,2013-09-23 15:52:00
11:52 AM,73.0,52.0,48,29.78,10.0,SSE,17.3,23.0,N/A,,Clear,160,2013-09-23 16:52:00
12:52 PM,75.0,52.0,44,29.76,10.0,SSE,20.7,27.6,N/A,,Clear,160,2013-09-23 17:52:00
1:52 PM,77.0,50.0,39,29.74,10.0,SSE,18.4,31.1,N/A,,Clear,160,2013-09-23 18:52:00
2:52 PM,79.0,50.0,36,29.72,10.0,SSE,19.6,31.1,N/A,,Clear,150,2013-09-23 19:52:00
3:52 PM,80.1,50.0,35,29.73,10.0,SSE,19.6,29.9,N/A,,Clear,160,2013-09-23 20:52:00
4:52 PM,80.1,51.1,36,29.72,10.0,SSE,15.0,23.0,N/A,,Clear,150,2013-09-23 21:52:00
5:52 PM,75.9,50.0,40,29.74,10.0,SSE,16.1,23.0,N/A,,Clear,150,2013-09-23 22:52:00
6:52 PM,73.0,50.0,44,29.75,10.0,SE,10.4,-,N/A,,Clear,140,2013-09-23 23:52:00
7:52 PM,69.1,52.0,54,29.75,10.0,SE,10.4,-,N/A,,Clear,130,2013-09-24 00:52:00
8:52 PM,68.0,50.0,52,29.76,10.0,ESE,11.5,-,N/A,,Clear,120,2013-09-24 01:52:00
9:52 PM,68.0,48.9,50,29.77,10.0,ESE,13.8,-,N/A,,Overcast,120,2013-09-24 02:52:00
10:52 PM,66.0,50.0,56,29.78,10.0,ESE,12.7,-,N/A,,Clear,110,2013-09-24 03:52:00
11:52 PM,64.9,50.0,58,29.77,10.0,East,9.2,-,N/A,,Scattered Clouds,100,2013-09-24 04:52:00